Regional Weather Roundup
Issued by NWS Goodland, KS

Home | Current Version | Previous Version | Text Only | Print | Product List | Glossary On
Versions: 1 2 3 4 5 6 7 8 9 10 11 12 13 14 15 16 17 18 19 20 21 22 23 24 25 26 27 28 29 30 31 32 33 34 35 36 37 38 39 40 41 42 43 44 45 46 47 48 49 50
000
ASUS43 KGLD 271708
RWRGLD

GOODLAND FORECAST AREA HOURLY WEATHER ROUNDUP
NATIONAL WEATHER SERVICE GOODLAND KS
1100 AM MDT FRI MAY 27 2016

...OFFICIAL OBSERVATIONS...

CITY           SKY/WX    TMP DP  RH WIND       PRES   REMARKS
GOODLAND KS    CLOUDY    60  52  74 NE10      29.74F
HILL CITY KS   LGT RAIN  60  58  92 NE9       29.74S FOG
IMPERIAL NEB   CLOUDY    60  52  74 NE14      29.79R
MCCOOK NEB     CLOUDY    61  54  77 E13       29.77R
AKRON CO       CLOUDY    54  49  83 NE21G28   29.82R
BURLINGTON CO  CLOUDY    59  49  69 NE16      29.76R
LIMON CO       LGT RAIN  47  45  93 N28G35    29.81S
$$

...UNOFFICIAL OBSERVATIONS...

CITY           SKY/WX    TMP DP  RH WIND       PRES   REMARKS
GOVE KS          N/A     61  32  33 MISG        N/A
LENORA KS        N/A     57  32  39 MISG        N/A
TRIBUNE KS     MOSUNNY   63  48  59 NW3       29.74F
KIT CARSON CO    N/A     59  46  63 MISG        N/A
YUMA CO          N/A     57  52  83 NE13        N/A
$$



USA.gov is the U.S. government's official web portal to all federal, state and local government web resources and services.